DateTimeUTC,F1_A11,F1_S11,BsB_S11,BsG_S11,BsR_S11,BbsB_S11,BbsG_S11,BbsR_S11,BaB_A11,BaG_A11,BaR_A11,Tu_S11,T_S11,Uu_S11,U_S11,P_S11,T1_A11
2021-08-24T00:00:00Z,00000200,20000000,,,,,,,-000.24,-000.13,-000.33,18.3,25.5,03.4,02.2,0679.0,31.0
2021-08-24T00:01:00Z,00000200,20000000,,,,,,,-000.04,0000.06,0000.18,18.3,25.5,03.3,02.1,0679.0,31.0
2021-08-24T00:02:00Z,00000200,20000000,,,,,,,0000.28,0000.65,0000.07,18.3,25.5,03.3,02.1,0679.0,31.0
2021-08-24T00:03:00Z,00000200,60000000,,,,,,,0000.37,0000.12,0000.20,18.3,25.5,03.3,02.1,0679.0,31.0
2021-08-24T00:04:00Z,00000200,40000000,0000.53,0000.25,-000.29,-000.72,-000.04,0000.06,-000.32,-000.71,-000.22,18.7,25.4,03.2,02.1,0679.9,31.0
2021-08-24T00:05:00Z,00000200,00000000,0000.45,0000.26,0000.11,-000.11,-000.24,0000.02,-000.02,0000.54,0000.33,18.8,25.4,03.2,02.1,0680.0,31.0
2021-08-24T00:06:00Z,00000200,00000000,0000.49,0000.02,0000.02,0000.23,0000.22,0000.16,-000.19,-000.09,-000.06,18.8,25.4,03.2,02.1,0680.0,31.0
2021-08-24T00:07:00Z,00000200,00000000,0000.66,0000.43,0000.18,0000.03,-000.34,0000.22,0000.29,0000.18,-000.12,18.8,25.4,03.1,02.1,0680.0,31.0
2021-08-24T00:08:00Z,00000200,00000000,-000.17,0000.29,0000.06,0000.01,0000.05,-000.12,-000.25,-000.19,-000.37,18.8,25.4,03.1,02.1,0680.0,31.0
2021-08-24T00:09:00Z,00000200,00000000,-000.23,-000.05,0000.04,-000.06,0000.03,0000.21,-000.01,-000.06,0000.19,18.8,25.3,03.1,02.1,0680.0,31.0
2021-08-24T00:10:00Z,00000200,00000000,0000.54,0000.35,-000.05,0000.16,-000.38,0000.10,0000.10,-000.17,0000.03,18.7,25.3,03.1,02.1,0680.0,31.0
2021-08-24T00:11:00Z,00000200,00000000,0001.12,0000.57,0000.21,-000.38,-000.07,-000.08,-000.21,-000.03,0000.08,18.7,25.3,03.1,02.1,0680.1,31.0
2021-08-24T00:12:00Z,00000200,00000000,0000.53,0000.08,0000.11,0000.05,0000.01,-000.11,-000.01,0000.00,-000.35,18.7,25.3,03.0,02.0,0680.0,31.0
2021-08-24T00:13:00Z,00000200,00000000,0000.25,-000.17,-000.18,-000.27,-000.06,-000.03,-000.05,0000.07,0000.08,18.7,25.3,03.0,02.0,0680.0,31.0
2021-08-24T00:14:00Z,00000200,00000000,-000.39,-000.09,-000.10,-000.46,-000.25,-000.18,-000.24,-000.55,-000.42,18.6,25.3,03.0,02.0,0680.0,31.0
2021-08-24T00:15:00Z,00000200,00000000,0000.75,-000.17,-000.07,0000.32,0000.02,0000.30,-000.04,-000.17,-000.04,18.6,25.3,03.0,02.0,0680.0,31.0
2021-08-24T00:16:00Z,00000200,00000000,0000.27,0000.01,0000.16,-000.27,-000.18,0000.14,-000.27,-000.03,-000.25,18.6,25.2,02.9,01.9,0680.1,31.0
2021-08-24T00:17:00Z,00000200,00000000,0000.44,0000.01,-000.03,-000.20,-000.03,-000.03,-000.16,-000.03,0000.19,18.6,25.2,02.9,01.9,0680.1,31.0
2021-08-24T00:18:00Z,00000200,00000000,0001.05,-000.05,-000.08,0000.63,-000.13,-000.07,-000.05,-000.44,-000.36,18.6,25.2,02.7,01.8,0680.0,31.0
2021-08-24T00:19:00Z,00000200,00000000,0000.19,0000.08,0000.17,-000.31,0000.07,-000.21,0000.07,0000.29,0000.19,18.6,25.2,02.7,01.8,0680.1,31.0
2021-08-24T00:20:00Z,00000200,00000000,0001.12,0000.20,0000.24,0000.24,-000.16,0000.47,0000.07,-000.15,0000.07,18.6,25.2,02.6,01.8,0680.0,31.0
2021-08-24T00:21:00Z,00000200,00000000,-000.15,-000.12,0000.01,0000.24,0000.25,-000.13,-000.43,-000.06,-000.19,18.6,25.2,02.7,01.8,0680.1,31.0
2021-08-24T00:22:00Z,00000200,00000000,0000.77,-000.25,0000.03,0000.09,0000.18,-000.06,-000.09,0000.03,-000.05,18.5,25.2,02.7,01.8,0680.0,31.0
2021-08-24T00:23:00Z,00000200,00000000,0000.45,0000.16,0000.07,-000.05,-000.13,0000.18,0000.40,-000.32,-000.02,18.5,25.2,02.5,01.6,0680.1,31.0
2021-08-24T00:24:00Z,00000200,00000000,0000.87,0000.22,0000.13,0000.18,0000.12,0000.43,-000.25,0000.29,0000.27,18.5,25.2,02.6,01.7,0680.0,31.0
2021-08-24T00:25:00Z,00000200,00000000,0000.35,-000.13,-000.10,-000.42,0000.38,0000.05,0000.04,-000.03,-000.35,18.5,25.2,02.4,01.6,0680.1,31.0
2021-08-24T00:26:00Z,00000200,00000000,0000.86,0000.30,-000.39,0000.41,0000.14,0000.19,-000.24,-000.42,0000.10,18.5,25.2,02.4,01.6,0680.1,31.0
2021-08-24T00:27:00Z,00000200,00000000,0000.22,-000.17,-000.26,-000.45,-000.04,0000.25,0000.04,0000.01,-000.13,18.5,25.1,02.4,01.6,0680.1,31.0
2021-08-24T00:28:00Z,00000200,00000000,0000.51,0000.54,0000.11,0000.07,0000.20,0000.19,0000.04,0000.00,-000.11,18.4,25.2,02.3,01.5,0680.1,31.0
2021-08-24T00:29:00Z,00000200,01000000,-000.00,0000.19,-000.18,0000.25,-000.16,-000.06,0000.13,0000.07,-000.00,18.4,25.1,02.3,01.6,0680.1,31.0
2021-08-24T00:30:00Z,00000200,00000000,-000.25,-000.07,-000.23,0000.19,-000.08,-000.17,-000.27,-000.11,-000.05,18.4,25.1,02.4,01.6,0680.1,31.0
2021-08-24T00:31:00Z,00000200,00000000,0000.47,-000.05,-000.14,0000.28,-000.00,0000.25,0000.38,0000.21,0000.51,18.4,25.1,02.3,01.5,0680.1,30.9
2021-08-24T00:32:00Z,00000200,00000000,0000.22,0000.07,0000.09,-000.27,-000.21,-000.33,0000.13,0000.15,0000.09,18.4,25.1,02.4,01.6,0680.1,31.0
2021-08-24T00:33:00Z,00000200,00000000,0000.67,0000.13,0000.19,0000.04,0000.07,0000.31,-000.06,0000.18,0000.18,18.5,25.1,02.3,01.5,0680.1,31.0
2021-08-24T00:34:00Z,00000200,00000000,0000.16,0000.03,-000.04,0000.06,-000.05,0000.12,0000.23,0000.16,-000.13,18.7,25.2,02.3,01.5,0680.1,31.0
2021-08-24T00:35:00Z,00000200,00000000,0000.04,-000.18,-000.03,0000.13,-000.05,0000.02,0000.06,-000.14,-000.01,18.8,25.3,02.3,01.6,0680.1,31.0
2021-08-24T00:36:00Z,00000200,00000000,0000.97,0000.03,0000.06,-000.28,-000.25,0000.37,0000.10,0000.56,0000.44,18.8,25.3,02.3,01.6,0680.1,31.0
2021-08-24T00:37:00Z,00000200,00000000,0000.21,0000.05,-000.15,-000.66,0000.15,-000.10,-000.13,-000.15,-000.08,18.9,25.3,02.3,01.6,0680.1,31.0
2021-08-24T00:38:00Z,00000200,00000000,0000.57,-000.09,0000.08,0000.19,-000.31,0000.12,-000.05,-000.06,-000.32,18.8,25.3,02.5,01.7,0680.2,31.0
2021-08-24T00:39:00Z,00000200,00000000,0000.65,-000.13,-000.11,-000.07,-000.11,-000.21,0000.10,-000.26,-000.12,18.8,25.3,02.4,01.6,0680.2,31.0
2021-08-24T00:40:00Z,00000200,00000000,0000.10,-000.11,0000.14,-000.10,0000.14,0000.20,0000.08,-000.07,0000.12,18.8,25.3,02.4,01.6,0680.2,31.0
2021-08-24T00:41:00Z,00000200,00000000,-000.31,-000.22,0000.36,-000.18,0000.05,0000.12,-000.02,0000.23,-000.14,18.8,25.3,02.4,01.6,0680.2,31.0
2021-08-24T00:42:00Z,00000200,00000000,0000.51,-000.14,0000.11,-000.75,-000.17,0000.20,0000.27,-000.01,0000.21,18.7,25.3,02.6,01.7,0680.2,31.0
2021-08-24T00:43:00Z,00000200,00000000,0001.19,0000.10,-000.07,-000.35,-000.14,-000.05,-000.47,-000.22,-000.08,18.7,25.2,02.5,01.7,0680.2,31.0
2021-08-24T00:44:00Z,00000200,00000000,-000.64,-000.02,0000.12,-000.44,0000.03,0000.15,0000.21,-000.02,-000.34,18.7,25.2,02.4,01.6,0680.2,31.0
2021-08-24T00:45:00Z,00000200,00000000,0000.54,-000.04,-000.14,-000.38,-000.31,0000.34,0000.43,0000.38,0000.40,18.6,25.2,02.4,01.6,0680.2,31.0
2021-08-24T00:46:00Z,00000200,00000000,0000.54,-000.21,-000.09,-000.40,0000.11,0000.23,-000.06,0000.15,0000.11,18.6,25.2,02.5,01.7,0680.2,31.0
2021-08-24T00:47:00Z,00000200,00000000,-000.15,0000.18,0000.02,-000.28,0000.15,-000.06,0000.19,0000.59,0000.39,18.6,25.2,02.4,01.6,0680.2,31.0
2021-08-24T00:48:00Z,00000200,00000000,0000.50,-000.19,-000.06,-000.17,0000.06,0000.11,-000.19,-000.27,0000.00,18.7,25.2,02.5,01.7,0680.2,31.0
2021-08-24T00:49:00Z,00000200,00000000,-000.70,0000.18,-000.08,-000.53,0000.00,-000.13,-000.24,-000.30,-000.13,18.8,25.3,02.3,01.6,0680.2,31.0
2021-08-24T00:50:00Z,00000200,00000000,-000.14,-000.12,-000.03,0000.35,-000.09,-000.09,0000.30,0000.28,-000.13,18.8,25.3,02.4,01.6,0680.2,31.0
2021-08-24T00:51:00Z,00000200,00000000,-000.04,-000.07,0000.14,0000.09,-000.01,-000.27,0000.14,-000.13,0000.17,18.8,25.3,02.4,01.6,0680.2,31.0
2021-08-24T00:52:00Z,00000200,00000000,0000.81,-000.12,0000.03,-000.56,-000.03,0000.04,-000.38,-000.01,-000.33,18.8,25.3,02.3,01.6,0680.2,31.0
2021-08-24T00:53:00Z,00000200,00000000,-000.06,0000.48,-000.08,0000.13,0000.11,-000.28,-000.25,-000.59,-000.20,18.8,25.3,02.4,01.6,0680.2,31.0
2021-08-24T00:54:00Z,00000200,00000000,0000.07,0000.24,-000.11,0000.04,0000.12,-000.03,-000.02,0000.41,0000.04,18.7,25.3,02.3,01.6,0680.2,31.0
2021-08-24T00:55:00Z,00000200,00000000,0000.22,-000.27,-000.09,0000.01,-000.10,-000.22,0000.06,-000.43,-000.22,18.7,25.3,02.3,01.5,0680.2,31.0
2021-08-24T00:56:00Z,00000200,00000000,-000.44,0000.05,-000.08,0000.01,-000.30,-000.29,-000.20,-000.01,0000.20,18.7,25.3,02.2,01.5,0680.2,31.0
2021-08-24T00:57:00Z,00000200,40000000,,,,,,,0001.14,0000.92,0000.31,18.7,25.3,01.9,01.3,0680.1,31.0
2021-08-24T00:58:00Z,00000200,60000000,,,,,,,-000.87,-000.60,-000.15,18.3,25.4,02.3,01.5,0679.2,31.0
2021-08-24T00:59:00Z,00000200,20000000,,,,,,,-000.49,-000.38,-000.22,18.3,25.5,02.3,01.5,0679.2,31.0
